|
NORAD ID: 12328 Int'l Code: 1981-022J
Perigee: 1,464.0 km
Apogee: 1,703.1 km
Inclination: 74.0 °
Period: 117.7 minutes
Semi major axis: 7954 km
Launch date: March 6, 1981
Source: Commonwealth of Independent States (former USSR) (CIS)
Note: This is a ROCKET BODY
Two Line Element Set (TLE):
1 12328U 81022J 13140.40303516 .00000004 00000-0 16554-3 0 5590
2 12328 074.0229 217.6707 0150295 002.3841 078.4054 12.23720070438975
Source:
NASA's NSSDC Master Catalog entry for SL-8 R/B
|